DLH4EV EDDF-EDDS

Flight info

Callsign DLH4EV
Flight time 0h 24m
Altitude 15000
Route ANEKI2L ANEKI Y163 NEKLO Y171 INKAM N850 KRH T128 BADSO BADSO2A
Aircraft A320/M-SDE3FGHIRWY/LB1

Departure

Time 2026-05-05 20:36
Airport Frankfurt Main Airport (EDDF)

Arrival

Time 2026-05-05 21:01
Airport Stuttgart Airport (EDDS)
Time Latitude Longitude Altitude Speed Heading
2026-05-05 20:14 50.03787 8.54496 350 ft 0 kts 160°
2026-05-05 20:31 50.03785 8.54497 346 ft 1 kts 160°
2026-05-05 20:31 50.03757 8.54513 348 ft 5 kts 159°
2026-05-05 20:32 50.03710 8.54502 351 ft 13 kts 221°
2026-05-05 20:32 50.03663 8.54333 348 ft 19 kts 251°
2026-05-05 20:32 50.03615 8.54137 346 ft 20 kts 244°
2026-05-05 20:32 50.03563 8.53923 338 ft 22 kts 250°
2026-05-05 20:33 50.03506 8.53687 335 ft 24 kts 249°
2026-05-05 20:33 50.03446 8.53431 334 ft 26 kts 250°
2026-05-05 20:33 50.03382 8.53159 336 ft 28 kts 249°
2026-05-05 20:33 50.03312 8.52870 334 ft 29 kts 250°
2026-05-05 20:34 50.03270 8.52644 335 ft 19 kts 266°
2026-05-05 20:34 50.03222 8.52596 334 ft 0 kts 177°
2026-05-05 20:35 50.03220 8.52596 335 ft 2 kts 178°
2026-05-05 20:35 50.03002 8.52599 335 ft 69 kts 180°
2026-05-05 20:35 50.02292 8.52604 331 ft 131 kts 179°
2026-05-05 20:36 50.01216 8.52617 435 ft 169 kts 179°
2026-05-05 20:36 50.00020 8.52630 1092 ft 174 kts 179°
2026-05-05 20:36 49.98795 8.52694 1783 ft 181 kts 180°
2026-05-05 20:36 49.97494 8.52760 2339 ft 193 kts 180°
2026-05-05 20:37 49.96112 8.52812 2940 ft 204 kts 181°
2026-05-05 20:37 49.94631 8.52861 3493 ft 223 kts 180°
2026-05-05 20:37 49.93034 8.52975 4053 ft 229 kts 179°
2026-05-05 20:37 49.91434 8.53149 4580 ft 231 kts 178°
2026-05-05 20:38 49.89829 8.53333 4921 ft 231 kts 179°
2026-05-05 20:38 49.88223 8.53427 5264 ft 231 kts 182°
2026-05-05 20:38 49.86611 8.53469 5639 ft 233 kts 181°
2026-05-05 20:38 49.84985 8.53561 6025 ft 235 kts 180°
2026-05-05 20:39 49.83336 8.53695 6103 ft 237 kts 179°
2026-05-05 20:39 49.81546 8.53844 6113 ft 283 kts 179°
2026-05-05 20:39 49.79496 8.54003 6918 ft 305 kts 179°
2026-05-05 20:39 49.77353 8.54026 8183 ft 311 kts 186°
2026-05-05 20:40 49.75142 8.53774 9524 ft 317 kts 187°
2026-05-05 20:40 49.72933 8.53489 10770 ft 318 kts 187°
2026-05-05 20:40 49.70731 8.53190 12030 ft 319 kts 187°
2026-05-05 20:40 49.68525 8.52889 13355 ft 317 kts 187°
2026-05-05 20:41 49.66335 8.52588 14587 ft 314 kts 187°
2026-05-05 20:41 49.64172 8.52295 15805 ft 312 kts 186°
2026-05-05 20:41 49.61960 8.51997 16431 ft 329 kts 186°
2026-05-05 20:41 49.59591 8.51675 16716 ft 355 kts 186°
2026-05-05 20:42 49.57038 8.51333 16825 ft 382 kts 186°
2026-05-05 20:42 49.54306 8.50970 16837 ft 406 kts 186°
2026-05-05 20:42 49.51417 8.50593 16838 ft 426 kts 186°
2026-05-05 20:42 49.48428 8.50208 16837 ft 432 kts 186°
2026-05-05 20:43 49.45438 8.49828 16840 ft 432 kts 186°
2026-05-05 20:43 49.42447 8.49443 16837 ft 431 kts 186°
2026-05-05 20:43 49.39454 8.49055 16836 ft 431 kts 186°
2026-05-05 20:43 49.36469 8.48663 16839 ft 430 kts 186°
2026-05-05 20:44 49.33492 8.48275 16836 ft 430 kts 185°
2026-05-05 20:44 49.30503 8.48366 16832 ft 431 kts 174°
2026-05-05 20:44 49.27573 8.49373 16830 ft 433 kts 163°
2026-05-05 20:44 49.24830 8.51297 16833 ft 436 kts 151°
2026-05-05 20:45 49.19684 8.56239 16828 ft 437 kts 149°
2026-05-05 20:45 49.17030 8.58463 16828 ft 434 kts 159°
2026-05-05 20:45 49.14154 8.59797 16831 ft 431 kts 171°
2026-05-05 20:46 49.11177 8.60160 16814 ft 429 kts 183°
2026-05-05 20:46 49.08209 8.59790 16507 ft 427 kts 187°
2026-05-05 20:46 49.05263 8.59345 16201 ft 425 kts 187°
2026-05-05 20:46 49.02333 8.58898 15894 ft 420 kts 187°
2026-05-05 20:47 48.99436 8.58522 15589 ft 418 kts 183°
2026-05-05 20:47 48.96538 8.58737 15210 ft 417 kts 178°
2026-05-05 20:47 48.93655 8.59078 14644 ft 413 kts 178°
2026-05-05 20:47 48.90798 8.59419 14093 ft 410 kts 177°
2026-05-05 20:48 48.88009 8.60267 13536 ft 412 kts 161°
2026-05-05 20:48 48.85606 8.62612 12926 ft 416 kts 138°
2026-05-05 20:48 48.83967 8.66224 12322 ft 419 kts 115°
2026-05-05 20:48 48.83365 8.70539 11731 ft 422 kts 91°
2026-05-05 20:49 48.83679 8.74955 11153 ft 422 kts 82°
2026-05-05 20:49 48.84220 8.79321 10584 ft 420 kts 79°
2026-05-05 20:49 48.84841 8.83637 10029 ft 417 kts 78°
2026-05-05 20:49 48.85477 8.87910 9450 ft 414 kts 78°
2026-05-05 20:50 48.86093 8.92171 8858 ft 411 kts 79°
2026-05-05 20:50 48.86478 8.94959 8800 ft 401 kts 79°
2026-05-05 20:50 48.87157 9.00168 8850 ft 353 kts 80°
2026-05-05 20:50 48.87602 9.03780 8856 ft 345 kts 81°
2026-05-05 20:51 48.88022 9.07266 8852 ft 325 kts 81°
2026-05-05 20:51 48.88436 9.10705 8862 ft 348 kts 81°
2026-05-05 20:51 48.88870 9.14264 8850 ft 334 kts 81°
2026-05-05 20:51 48.89286 9.17636 8852 ft 317 kts 81°
2026-05-05 20:52 48.89683 9.20841 8849 ft 301 kts 81°
2026-05-05 20:52 48.90067 9.23941 8496 ft 296 kts 81°
2026-05-05 20:52 48.90442 9.26986 7986 ft 290 kts 81°
2026-05-05 20:52 48.90809 9.29974 7470 ft 285 kts 80°
2026-05-05 20:53 48.91112 9.32917 6981 ft 278 kts 90°
2026-05-05 20:53 48.91000 9.34874 6653 ft 272 kts 107°
2026-05-05 20:53 48.90265 9.37431 6159 ft 261 kts 130°
2026-05-05 20:53 48.89009 9.39323 5653 ft 251 kts 152°
2026-05-05 20:54 48.87455 9.40403 5150 ft 244 kts 166°
2026-05-05 20:54 48.85859 9.41247 4649 ft 242 kts 166°
2026-05-05 20:54 48.84279 9.42095 4143 ft 241 kts 165°
2026-05-05 20:54 48.82722 9.42934 3862 ft 231 kts 165°
2026-05-05 20:55 48.81274 9.43720 3851 ft 211 kts 165°
2026-05-05 20:55 48.79958 9.44439 3867 ft 195 kts 166°
2026-05-05 20:55 48.78675 9.45129 3870 ft 195 kts 166°
2026-05-05 20:55 48.77428 9.45793 3870 ft 187 kts 167°
2026-05-05 20:56 48.76179 9.46081 3857 ft 179 kts 187°
2026-05-05 20:56 48.74983 9.45737 3857 ft 172 kts 205°
2026-05-05 20:56 48.73956 9.44859 3856 ft 170 kts 221°
2026-05-05 20:56 48.73188 9.43590 3747 ft 158 kts 238°
2026-05-05 20:57 48.72739 9.42127 3583 ft 150 kts 253°
2026-05-05 20:57 48.72466 9.40665 3417 ft 140 kts 253°
2026-05-05 20:57 48.72205 9.39277 3248 ft 135 kts 253°
2026-05-05 20:57 48.71960 9.37923 3021 ft 133 kts 253°
2026-05-05 20:58 48.71703 9.36567 2730 ft 133 kts 249°
2026-05-05 20:58 48.71454 9.35236 2586 ft 132 kts 257°
2026-05-05 20:58 48.71218 9.33899 2447 ft 132 kts 247°
2026-05-05 20:58 48.70944 9.32577 2363 ft 132 kts 255°
2026-05-05 20:59 48.70681 9.31242 2265 ft 133 kts 254°
2026-05-05 20:59 48.70439 9.29875 2057 ft 136 kts 251°
2026-05-05 20:59 48.70180 9.28478 1805 ft 139 kts 253°
2026-05-05 20:59 48.69911 9.27054 1585 ft 149 kts 253°
2026-05-05 21:00 48.69626 9.25592 1386 ft 138 kts 253°
2026-05-05 21:00 48.69371 9.24244 1226 ft 131 kts 253°
2026-05-05 21:00 48.69154 9.23084 1225 ft 93 kts 254°
2026-05-05 21:00 48.68999 9.22297 1244 ft 68 kts 252°
2026-05-05 21:01 48.68942 9.21734 1253 ft 45 kts 279°
2026-05-05 21:01 48.68971 9.21556 1256 ft 0 kts 284°
2026-05-05 21:02 48.68972 9.21548 1256 ft 6 kts 284°
2026-05-05 21:02 48.68985 9.21477 1259 ft 5 kts 286°
2026-05-05 21:03 48.68989 9.21454 1260 ft 0 kts 286°
2026-05-05 21:03 48.69000 9.21360 1261 ft 18 kts 268°
2026-05-05 21:03 48.68970 9.21172 1264 ft 19 kts 252°
2026-05-05 21:03 48.68934 9.20988 1264 ft 18 kts 253°
2026-05-05 21:04 48.68900 9.20811 1277 ft 17 kts 254°
2026-05-05 21:04 48.68868 9.20638 1273 ft 17 kts 254°
2026-05-05 21:04 48.68824 9.20409 1278 ft 37 kts 253°
2026-05-05 21:04 48.68764 9.20100 1285 ft 18 kts 253°
2026-05-05 21:05 48.68805 9.19934 1288 ft 21 kts 314°
2026-05-05 21:05 48.68877 9.19749 1285 ft 21 kts 257°
2026-05-05 21:05 48.68835 9.19531 1285 ft 22 kts 254°
2026-05-05 21:05 48.68819 9.19393 1288 ft 7 kts 303°
2026-05-05 21:06 48.68861 9.19369 1290 ft 6 kts 346°
2026-05-05 21:06 48.68886 9.19359 1286 ft 0 kts 345°
2026-05-05 21:06 48.68888 9.19358 1286 ft 0 kts 345°